MW0YBZ Weather Reports


time (UTC)temp
C
wind
direction
speed
KPH
gust
KPH
rain 1hr
cm
rain 24hr
cm
rain mn
cm
humidity
%
barometer
mb
20260510202033 8 0 0.0 3.2 0.00 0.00 0.00 63 1014.5
20260510201546 8 0 0.0 4.8 0.00 0.00 0.00 62 1014.6
20260510201034 8 0 0.0 4.8 0.00 0.00 0.00 62 1014.5
20260510200535 8 0 0.0 4.8 0.00 0.00 0.00 62 1014.4
20260510200059 9 0 0.0 4.8 0.00 0.00 0.00 61 1014.4
20260510195535 9 0 0.0 3.2 0.00 0.00 0.00 60 1014.5
20260510195035 10 0 0.0 4.8 0.00 0.00 0.00 59 1014.4
20260510194623 10 0 0.0 4.8 0.00 0.00 0.00 58 1014.4
20260510194034 10 317 1.6 4.8 0.00 0.00 0.00 58 1014.5
20260510193535 10 0 0.0 4.8 0.00 0.00 0.00 58 1014.5
20260510193049 10 331 0.0 8.0 0.00 0.00 0.00 57 1014.5
20260510192534 10 119 0.0 8.0 0.00 0.00 0.00 57 1014.5
20260510192034 10 301 1.6 6.4 0.00 0.00 0.00 56 1014.6
20260510191541 11 15 1.6 6.4 0.00 0.00 0.00 55 1014.6
20260510191033 11 0 1.6 8.0 0.00 0.00 0.00 54 1014.6
20260510190534 11 0 1.6 9.7 0.00 0.00 0.00 54 1014.5
20260510190052 11 0 1.6 9.7 0.00 0.00 0.00 56 1014.5
20260510185535 11 35 1.6 9.7 0.00 0.00 0.00 56 1014.5
20260510185034 11 286 1.6 8.0 0.00 0.00 0.00 56 1014.5
20260510184552 11 5 1.6 6.4 0.00 0.00 0.00 57 1014.5
20260510184034 11 0 1.6 9.7 0.00 0.00 0.00 57 1014.5
20260510183535 11 0 1.6 9.7 0.00 0.00 0.00 57 1014.6
20260510183046 11 50 1.6 11.3 0.00 0.00 0.00 57 1014.4
20260510182534 11 20 1.6 11.3 0.00 0.00 0.00 57 1014.6
20260510182037 11 342 1.6 9.7 0.00 0.00 0.00 56 1014.5
20260510181549 11 42 1.6 8.0 0.00 0.00 0.00 56 1014.6
20260510181035 11 74 1.6 11.3 0.00 0.00 0.00 55 1014.6
20260510180535 11 70 3.2 12.9 0.00 0.00 0.00 55 1014.7
20260510180043 12 78 3.2 12.9 0.00 0.00 0.00 55 1014.6
20260510175536 12 52 3.2 12.9 0.00 0.00 0.00 54 1014.7
20260510175034 12 125 3.2 9.7 0.00 0.00 0.00 57 1014.7
20260510174550 12 183 1.6 9.7 0.00 0.00 0.00 58 1014.8
20260510174034 12 0 1.6 14.5 0.00 0.00 0.00 59 1014.7
20260510173536 12 9 3.2 14.5 0.00 0.00 0.00 57 1014.8
20260510173044 12 151 3.2 14.5 0.00 0.00 0.00 57 1014.8
20260510172534 12 63 1.6 16.1 0.00 0.00 0.00 58 1014.9
20260510172036 12 5 3.2 16.1 0.00 0.00 0.00 57 1014.8
20260510171546 12 45 4.8 16.1 0.00 0.00 0.00 56 1015.0
20260510171034 12 78 4.8 16.1 0.00 0.00 0.00 57 1014.9
20260510170534 12 338 3.2 16.1 0.00 0.00 0.00 57 1014.9
20260510170053 12 94 4.8 17.7 0.00 0.00 0.00 57 1015.0
20260510165533 12 49 4.8 17.7 0.00 0.00 0.00 57 1015.1
20260510165033 12 43 6.4 17.7 0.00 0.00 0.00 56 1015.0
20260510164551 12 24 4.8 17.7 0.00 0.00 0.00 56 1015.2
20260510164034 13 33 3.2 16.1 0.00 0.00 0.00 58 1015.2
20260510163534 12 90 3.2 16.1 0.00 0.00 0.00 58 1015.3
20260510163043 12 49 4.8 16.1 0.00 0.00 0.00 58 1015.2
20260510162534 12 101 1.6 16.1 0.00 0.00 0.00 59 1015.3
20260510162036 12 43 1.6 16.1 0.00 0.00 0.00 58 1015.3
20260510161545 12 30 3.2 14.5 0.00 0.00 0.00 59 1015.3
20260510161036 12 41 1.6 14.5 0.00 0.00 0.00 61 1015.5
20260510160536 12 92 3.2 16.1 0.00 0.00 0.00 60 1015.7
20260510160049 12 33 4.8 16.1 0.00 0.00 0.00 60 1015.7
20260510155535 12 60 6.4 16.1 0.00 0.00 0.00 59 1015.7
20260510155040 12 342 1.6 16.1 0.00 0.00 0.00 60 1015.8
20260510154554 12 342 3.2 16.1 0.00 0.00 0.00 61 1015.7
20260510154034 12 42 6.4 16.1 0.00 0.00 0.00 60 1015.7
20260510153534 12 94 3.2 17.7 0.00 0.00 0.00 61 1015.8
20260510153051 12 100 6.4 17.7 0.00 0.00 0.00 60 1015.7
20260510152534 12 86 4.8 17.7 0.00 0.00 0.00 60 1015.7
20260510152037 12 44 4.8 16.1 0.00 0.00 0.00 61 1015.7
20260510151547 13 129 4.8 16.1 0.00 0.00 0.00 60 1015.7
20260510151037 13 22 6.4 19.3 0.00 0.00 0.00 61 1015.8
20260510150535 12 338 4.8 19.3 0.00 0.00 0.00 61 1015.9
20260510150046 12 53 1.6 14.5 0.00 0.00 0.00 61 1016.1
20260510145535 13 61 3.2 25.7 0.00 0.00 0.00 59 1016.1
20260510145036 13 76 6.4 25.7 0.00 0.00 0.00 60 1016.2
20260510144550 13 86 4.8 17.7 0.00 0.00 0.00 61 1016.3
20260510144033 13 54 6.4 20.9 0.00 0.00 0.00 60 1016.2
20260510143533 13 31 4.8 22.5 0.00 0.00 0.00 62 1016.4
20260510143042 12 58 4.8 22.5 0.00 0.00 0.00 64 1016.4
20260510142535 12 65 4.8 22.5 0.00 0.00 0.00 64 1016.5
20260510142034 12 59 8.0 20.9 0.00 0.00 0.00 64 1016.5
20260510141552 12 22 8.0 20.9 0.00 0.00 0.00 64 1016.7
20260510141034 12 28 6.4 17.7 0.00 0.00 0.00 66 1016.7
20260510140534 12 25 3.2 14.5 0.00 0.00 0.00 67 1016.7
20260510140053 12 78 4.8 19.3 0.00 0.00 0.00 67 1016.7
20260510135534 12 64 3.2 19.3 0.00 0.00 0.00 68 1016.8
20260510135035 11 51 6.4 19.3 0.00 0.00 0.00 67 1016.7
20260510134543 11 44 8.0 19.3 0.00 0.00 0.00 67 1016.7
20260510134037 12 46 4.8 24.1 0.00 0.00 0.00 68 1016.8
20260510133537 11 55 8.0 24.1 0.00 0.00 0.00 67 1016.7
20260510133045 11 78 9.7 24.1 0.00 0.00 0.00 68 1016.7
20260510132535 11 58 3.2 14.5 0.00 0.00 0.00 69 1016.8
20260510132038 11 64 1.6 17.7 0.00 0.00 0.00 70 1016.7
20260510131543 11 86 3.2 17.7 0.00 0.00 0.00 70 1016.7
20260510131034 11 51 6.4 17.7 0.00 0.00 0.00 70 1016.8
20260510130534 11 29 6.4 17.7 0.00 0.00 0.00 70 1016.9
20260510130053 11 82 4.8 17.7 0.00 0.00 0.00 70 1017.2
20260510125533 11 55 4.8 16.1 0.00 0.00 0.00 71 1017.2
20260510125035 11 154 6.4 24.1 0.00 0.00 0.00 71 1017.1
20260510124553 11 301 4.8 24.1 0.00 0.00 0.00 72 1017.3
20260510124034 10 349 6.4 19.3 0.00 0.00 0.00 73 1017.2
20260510123534 10 112 8.0 19.3 0.00 0.00 0.00 73 1017.4
20260510123046 10 67 6.4 19.3 0.00 0.00 0.00 74 1017.4
20260510122538 10 63 4.8 17.7 0.00 0.00 0.00 74 1017.4
20260510122037 10 86 4.8 17.7 0.00 0.00 0.00 74 1017.5
20260510121549 10 76 4.8 16.1 0.00 0.00 0.00 74 1017.6
20260510121037 10 71 3.2 19.3 0.00 0.00 0.00 75 1017.7
20260510120535 10 74 4.8 19.3 0.00 0.00 0.00 75 1017.7
20260510120048 10 56 6.4 19.3 0.00 0.00 0.00 75 1017.6
20260510115537 10 41 4.8 17.7 0.00 0.00 0.00 75 1017.7
20260510115034 10 67 4.8 17.7 0.00 0.00 0.00 76 1017.8
20260510114545 9 96 4.8 19.3 0.00 0.00 0.00 77 1017.8
20260510114036 9 105 3.2 19.3 0.00 0.00 0.00 77 1017.8
20260510113534 9 29 6.4 20.9 0.00 0.00 0.00 76 1017.8
20260510113046 9 33 4.8 22.5 0.00 0.00 0.00 77 1017.7
20260510112538 9 24 6.4 22.5 0.00 0.00 0.00 77 1017.8
20260510112038 9 94 4.8 19.3 0.00 0.00 0.00 78 1017.9
20260510111545 9 61 4.8 19.3 0.00 0.00 0.00 78 1018.0
20260510111037 9 67 4.8 14.5 0.00 0.00 0.00 78 1017.9
20260510110538 9 9 3.2 17.7 0.00 0.00 0.00 78 1018.0
20260510110045 9 277 4.8 17.7 0.00 0.00 0.00 79 1018.0
20260510105537 9 86 6.4 19.3 0.00 0.00 0.00 79 1018.1
20260510105039 8 77 6.4 19.3 0.00 0.00 0.00 78 1018.2
20260510104542 9 348 4.8 22.5 0.00 0.00 0.00 78 1018.2
20260510104037 8 90 6.4 22.5 0.00 0.00 0.00 79 1018.1
20260510103540 8 119 8.0 20.9 0.00 0.00 0.00 79 1018.2
20260510103057 8 121 8.0 19.3 0.00 0.00 0.00 79 1018.1
20260510102534 8 346 4.8 24.1 0.00 0.00 0.00 80 1018.2
20260510102034 8 72 6.4 24.1 0.00 0.00 0.00 80 1018.2
20260510101550 8 84 8.0 19.3 0.00 0.00 0.00 80 1018.2
20260510101033 8 66 3.2 19.3 0.00 0.00 0.00 81 1018.2
20260510100535 8 104 8.0 19.3 0.00 0.00 0.00 81 1018.2
20260510100045 8 31 6.4 17.7 0.00 0.00 0.00 81 1018.2
20260510095535 8 42 6.4 16.1 0.00 0.00 0.00 81 1018.3
20260510095034 8 0 4.8 16.1 0.00 0.00 0.00 82 1018.3
20260510094546 8 43 1.6 14.5 0.00 0.00 0.00 82 1018.3
20260510094035 8 121 3.2 14.5 0.00 0.00 0.00 82 1018.3
20260510093533 8 328 3.2 14.5 0.00 0.00 0.00 82 1018.3
20260510093043 8 123 3.2 16.1 0.00 0.00 0.00 82 1018.2
20260510092535 8 82 3.2 20.9 0.00 0.00 0.00 83 1018.4
20260510092036 8 329 3.2 20.9 0.00 0.00 0.00 83 1018.2
20260510091551 8 41 6.4 20.9 0.00 0.00 0.00 83 1018.2
20260510091035 8 75 3.2 14.5 0.00 0.00 0.00 83 1018.2
20260510090535 8 86 4.8 14.5 0.00 0.00 0.00 83 1018.2
20260510090051 8 125 3.2 16.1 0.00 0.00 0.00 84 1018.3
20260510085534 8 332 1.6 16.1 0.00 0.00 0.00 84 1018.4
20260510085034 8 119 4.8 17.7 0.00 0.00 0.00 84 1018.3
20260510084545 8 22 1.6 17.7 0.00 0.00 0.00 84 1018.5
20260510084034 8 69 1.6 25.7 0.00 0.00 0.00 84 1018.3
20260510083534 7 148 6.4 25.7 0.00 0.00 0.00 84 1018.4
20260510083042 7 34 4.8 20.9 0.00 0.00 0.00 84 1018.4
20260510082534 7 77 6.4 16.1 0.00 0.00 0.00 84 1018.5
20260510082036 7 49 3.2 16.1 0.00 0.00 0.00 85 1018.4
20260510081556 7 97 4.8 16.1 0.00 0.00 0.00 85 1018.4
20260510081034 7 63 4.8 19.3 0.00 0.00 0.00 85 1018.4
20260510080536 7 0 4.8 19.3 0.00 0.00 0.00 85 1018.5
20260510080048 7 71 6.4 19.3 0.00 0.00 0.00 85 1018.4
20260510075535 7 15 3.2 16.1 0.00 0.00 0.00 85 1018.4
20260510075035 7 49 4.8 16.1 0.00 0.00 0.00 85 1018.3
20260510074556 7 44 4.8 24.1 0.00 0.00 0.00 85 1018.4
20260510074037 7 134 9.7 25.7 0.00 0.00 0.00 85 1018.3
20260510073534 8 95 8.0 25.7 0.00 0.00 0.00 85 1018.2
20260510073046 8 35 4.8 20.9 0.00 0.00 0.00 85 1018.1
20260510072534 8 53 6.4 22.5 0.00 0.00 0.00 85 1018.1
20260510072133 8 302 6.4 22.5 0.00 0.00 0.00 85 1018.0
20260510071544 8 74 3.2 20.9 0.00 0.00 0.00 85 1018.0
20260510071037 8 109 8.0 20.9 0.00 0.00 0.00 84 1018.1
20260510070536 8 74 3.2 19.3 0.00 0.00 0.00 84 1018.1
20260510070047 8 53 4.8 35.4 0.00 0.00 0.00 84 1018.1
20260510065537 8 352 8.0 35.4 0.00 0.00 0.00 84 1018.0
20260510065035 8 77 6.4 35.4 0.00 0.00 0.00 84 1018.0
20260510064545 8 31 6.4 27.4 0.00 0.00 0.00 84 1017.8
20260510064034 8 188 8.0 22.5 0.00 0.00 0.00 84 1017.8
20260510063534 8 23 4.8 22.5 0.00 0.00 0.00 84 1017.8
20260510063046 8 111 6.4 25.7 0.00 0.00 0.00 84 1017.9
20260510062537 8 109 8.0 25.7 0.00 0.00 0.00 84 1017.8
20260510062036 8 311 8.0 25.7 0.00 0.00 0.00 84 1017.8
20260510061553 8 346 4.8 24.1 0.00 0.00 0.00 84 1017.8
20260510061041 8 38 8.0 24.1 0.00 0.00 0.00 84 1017.8
20260510060534 8 288 4.8 17.7 0.00 0.00 0.00 84 1017.9
20260510060043 8 66 4.8 17.7 0.00 0.00 0.00 84 1017.8
20260510055537 8 28 3.2 24.1 0.00 0.00 0.00 84 1017.7
20260510055036 8 175 4.8 24.1 0.00 0.00 0.00 84 1017.7
20260510054558 8 73 6.4 24.1 0.00 0.00 0.00 84 1017.8
20260510054038 8 40 3.2 19.3 0.00 0.00 0.00 84 1017.7
20260510053534 8 134 6.4 19.3 0.00 0.00 0.00 84 1017.7
20260510053048 8 304 3.2 14.5 0.00 0.00 0.00 84 1017.6
20260510052537 8 130 3.2 20.9 0.00 0.00 0.00 84 1017.6
20260510052035 8 0 4.8 20.9 0.00 0.00 0.00 83 1017.7
20260510051546 8 5 4.8 20.9 0.00 0.00 0.00 83 1017.7
20260510051039 8 263 4.8 17.7 0.00 0.00 0.00 83 1017.7
20260510050540 8 28 6.4 17.7 0.00 0.00 0.00 83 1017.7
20260510050053 8 360 8.0 19.3 0.00 0.00 0.00 83 1017.6
20260510045537 8 61 3.2 22.5 0.00 0.00 0.00 83 1017.7
20260510045034 8 55 6.4 22.5 0.00 0.00 0.00 83 1017.6
20260510044549 8 65 4.8 19.3 0.00 0.00 0.00 83 1017.6
20260510044034 8 28 6.4 19.3 0.00 0.00 0.00 83 1017.6
20260510043533 8 112 8.0 19.3 0.00 0.00 0.00 83 1017.6
20260510043048 8 78 6.4 24.1 0.00 0.00 0.00 83 1017.7
20260510042537 8 58 6.4 24.1 0.00 0.00 0.00 83 1017.6
20260510042037 8 329 4.8 24.1 0.00 0.00 0.00 83 1017.6
20260510041601 8 57 8.0 24.1 0.00 0.00 0.00 83 1017.6
20260510041036 8 53 6.4 20.9 0.00 0.00 0.00 83 1017.5
20260510040534 8 324 8.0 20.9 0.00 0.00 0.00 83 1017.6
20260510040051 8 22 6.4 24.1 0.00 0.00 0.00 83 1017.6
20260510035534 8 118 8.0 24.1 0.00 0.00 0.00 82 1017.6
20260510035036 8 40 6.4 24.1 0.00 0.00 0.00 82 1017.6
20260510034553 8 117 8.0 17.7 0.00 0.00 0.00 82 1017.6
20260510034039 8 70 3.2 19.3 0.00 0.00 0.00 82 1017.8
20260510033538 8 42 4.8 19.3 0.00 0.00 0.00 82 1017.9
20260510033055 8 327 6.4 25.7 0.00 0.00 0.00 82 1017.9
20260510032537 8 82 6.4 25.7 0.00 0.00 0.00 82 1018.0
20260510032037 8 62 3.2 14.5 0.00 0.00 0.00 82 1018.0
20260510031555 8 347 4.8 16.1 0.00 0.00 0.00 82 1018.1
20260510031037 8 113 4.8 17.7 0.00 0.00 0.00 82 1018.1
20260510030537 8 54 4.8 19.3 0.00 0.00 0.00 82 1018.1
20260510030047 8 18 4.8 19.3 0.00 0.00 0.00 82 1018.1
20260510025537 8 31 8.0 19.3 0.00 0.00 0.00 82 1018.1
20260510025036 8 78 6.4 19.3 0.00 0.00 0.00 82 1018.1
20260510024605 8 76 6.4 20.9 0.00 0.00 0.00 82 1018.2
20260510024036 8 23 4.8 22.5 0.00 0.00 0.00 82 1018.2
20260510023535 8 360 4.8 22.5 0.00 0.00 0.00 82 1018.2
20260510023055 8 44 8.0 22.5 0.00 0.00 0.00 81 1018.2
20260510022534 8 12 6.4 17.7 0.00 0.00 0.00 81 1018.1
20260510022035 8 34 4.8 20.9 0.00 0.00 0.00 81 1018.2
20260510021541 8 63 4.8 20.9 0.00 0.00 0.00 81 1018.2
20260510021034 8 23 6.4 24.1 0.00 0.00 0.00 81 1018.3
20260510020536 8 22 4.8 24.1 0.00 0.00 0.00 81 1018.2
20260510020239 8 62 6.4 24.1 0.00 0.00 0.00 80 1018.1
20260510015534 8 107 8.0 17.7 0.00 0.00 0.00 80 1018.3
20260510015036 9 13 4.8 17.7 0.00 0.00 0.00 80 1018.2
20260510014557 9 296 8.0 17.7 0.00 0.00 0.00 80 1018.1
20260510014036 9 60 6.4 22.5 0.00 0.00 0.00 80 1018.1
20260510013536 9 19 3.2 22.5 0.00 0.00 0.00 80 1018.0
20260510013058 9 21 6.4 17.7 0.00 0.00 0.00 80 1018.1
20260510012555 9 360 4.8 22.5 0.00 0.00 0.00 79 1018.1
20260510012035 9 163 6.4 22.5 0.00 0.00 0.00 79 1018.1
20260510011550 9 26 6.4 22.5 0.00 0.00 0.00 79 1018.1
20260510011036 9 107 6.4 22.5 0.00 0.00 0.00 79 1018.2
20260510010536 9 53 6.4 25.7 0.00 0.00 0.00 79 1018.1
20260510010051 10 28 4.8 25.7 0.00 0.00 0.00 79 1018.2
20260510005533 10 76 4.8 24.1 0.00 0.00 0.00 79 1018.1
20260510005037 10 98 6.4 24.1 0.00 0.00 0.00 79 1018.1
20260510004555 10 32 3.2 20.9 0.00 0.00 0.00 79 1018.2
20260510004034 10 64 4.8 19.3 0.00 0.00 0.00 79 1018.1
20260510003534 10 158 8.0 19.3 0.00 0.00 0.00 79 1018.1
20260510003049 10 39 6.4 20.9 0.00 0.00 0.00 79 1018.3
20260510002537 10 338 6.4 20.9 0.00 0.00 0.00 79 1018.4
20260510002034 10 19 6.4 25.7 0.00 0.00 0.00 79 1018.1
20260510001545 10 341 6.4 25.7 0.00 0.00 0.00 79 1018.1
20260510001037 10 340 6.4 25.7 0.00 0.00 0.00 79 1018.2
20260510000537 10 330 4.8 17.7 0.00 0.00 0.00 79 1018.1
20260510000046 10 261 3.2 17.7 0.00 0.00 0.00 79 1018.0
20260509235533 10 99 6.4 17.7 0.00 0.00 0.00 79 1017.9
20260509235033 10 43 3.2 14.5 0.00 0.00 0.00 79 1018.1
20260509234548 10 105 4.8 16.1 0.00 0.00 0.00 78 1018.1
20260509234034 10 344 4.8 17.7 0.00 0.00 0.00 78 1018.1
20260509233536 11 46 3.2 17.7 0.00 0.00 0.00 78 1018.1
20260509233052 11 50 6.4 19.3 0.00 0.00 0.00 78 1018.0
20260509232534 11 54 6.4 20.9 0.00 0.00 0.00 78 1017.8
20260509232036 11 44 8.0 20.9 0.00 0.00 0.00 78 1017.9
20260509231600 11 41 6.4 20.9 0.00 0.00 0.00 78 1017.9
20260509231034 11 79 4.8 17.7 0.00 0.00 0.00 78 1017.9
20260509230534 11 184 3.2 14.5 0.00 0.00 0.00 78 1017.9
20260509230045 11 360 3.2 14.5 0.00 0.00 0.00 79 1017.8
20260509225540 11 34 4.8 30.6 0.00 0.00 0.00 78 1017.8
20260509225033 11 68 6.4 30.6 0.00 0.00 0.00 78 1017.7
20260509224549 11 63 6.4 20.9 0.00 0.00 0.00 78 1017.8
20260509224037 11 28 6.4 20.9 0.00 0.00 0.00 78 1017.7
20260509223537 11 103 6.4 20.9 0.00 0.00 0.00 78 1017.7
20260509223046 11 28 4.8 27.4 0.00 0.00 0.00 78 1017.7
20260509222540 11 312 4.8 27.4 0.00 0.00 0.00 78 1017.5
20260509222037 12 267 8.0 19.3 0.00 0.00 0.00 78 1017.6
20260509221548 12 52 6.4 25.7 0.00 0.00 0.00 78 1017.6
20260509221034 12 86 8.0 25.7 0.00 0.00 0.00 78 1017.6
20260509220535 12 62 8.0 22.5 0.00 0.00 0.00 78 1017.5
20260509220052 12 352 4.8 22.5 0.00 0.00 0.00 78 1017.5
20260509215538 12 322 6.4 24.1 0.00 0.00 0.00 78 1017.6
20260509215037 12 50 4.8 24.1 0.00 0.00 0.00 77 1017.6
20260509214543 12 82 8.0 24.1 0.00 0.00 0.00 77 1017.6
20260509214036 12 34 4.8 24.1 0.00 0.00 0.00 77 1017.6
20260509213534 12 36 8.0 24.1 0.00 0.00 0.00 77 1017.5
20260509213049 12 338 6.4 17.7 0.00 0.00 0.00 76 1017.5
20260509212533 12 350 6.4 17.7 0.00 0.00 0.00 76 1017.6
20260509212036 12 142 3.2 17.7 0.00 0.00 0.00 76 1017.5
20260509211553 12 24 4.8 22.5 0.00 0.00 0.00 76 1017.6
20260509211034 12 147 6.4 22.5 0.00 0.00 0.00 75 1017.6
20260509210536 12 229 3.2 16.1 0.00 0.00 0.00 75 1017.5
20260509210053 13 74 3.2 19.3 0.00 0.00 0.00 75 1017.5
20260509205534 13 319 4.8 19.3 0.00 0.00 0.00 74 1017.5
20260509205038 13 237 3.2 25.7 0.00 0.00 0.00 74 1017.6
20260509204546 13 57 4.8 25.7 0.00 0.00 0.00 74 1017.6
20260509204034 13 48 4.8 16.1 0.00 0.00 0.00 73 1017.5
20260509203533 13 5 3.2 16.1 0.00 0.00 0.00 73 1017.4
20260509203051 13 304 3.2 16.1 0.00 0.00 0.00 73 1017.4
20260509202539 13 50 3.2 14.5 0.00 0.00 0.00 73 1017.3